Torna al catalogo

FREGAT DEB

AttivoUNKNOWN
NORAD 45840·DEBRIS·🇷🇺 Russia

Lanciato Jul 18, 2011 da Baikonur Cosmodrome

Loading…

Prossimi Passaggi (prossime 24 ore)

TLE

AggiornatoSource: Space-Track

Epoca: Sep 14, 2026, 02:03 UTC

1 45840U 11037CA  26257.08589226  .00014131  00000-0  44690-2 0  9990
2 45840  51.5449 139.0012 1874140  33.3085 337.2702 11.22674266246579

Traccia FREGAT DEB in tempo reale con AllMySat

Download on the App Store